"TOA5","MOW","CPU:UNC_MeetingWaters","DataHourly"
"TIMESTAMP","SondeTempC","SpCond","DOSat","DOmg","pH","Turb","BattVolt_Min"
"TS","","","","","","",""
"","Smp","Smp","Smp","Smp","Smp","Smp","Min"
"2002-01-01 00:00:00",5.44000005722,0.151999995112,98.6999969482,12.4600000381,7.30000019073,-0.40000000596,12.5100002289
"2002-01-01 01:00:00",5.40999984741,0.150999993086,98.4000015259,12.4300003052,7.28999996185,-0.20000000298,12.5
"2002-01-01 02:00:00",5.30000019073,0.150999993086,98.3000030518,12.4600000381,7.28000020981,-0.10000000149,12.4899997711
"2002-01-01 03:00:00",5.17999982834,0.150999993086,98.3000030518,12.5,7.28000020981,-0.20000000298,12.4799995422
"2002-01-01 04:00:00",4.92000007629,0.150999993086,98.1999969482,12.5600004196,7.26999998093,0.0,12.4600000381
"2002-01-01 05:00:00",4.61000013351,0.150999993086,97.8000030518,12.6099996567,7.26999998093,0.0,12.4300003052
"2002-01-01 06:00:00",4.13000011444,0.150999993086,97.5999984741,12.75,7.26999998093,-0.10000000149,12.3999996185
"2002-01-01 07:00:00",3.75999999046,0.150999993086,97.5999984741,12.8699998856,7.26000022888,-0.20000000298,12.3699998856
"2002-01-01 08:00:00",3.25999999046,0.150999993086,97.3000030518,13.0100002289,7.26000022888,-0.300000011921,12.3299999237
"2002-01-01 09:00:00",3.5,0.150999993086,98.8000030518,13.1199998856,7.26000022888,-0.300000011921,12.3199996948
"2002-01-01 10:00:00",3.01999998093,0.151999995112,99.5999984741,13.3900003433,7.26999998093,-0.20000000298,12.6099996567
"2002-01-01 11:00:00",3.76999998093,0.151999995112,103.699996948,13.6700000763,7.28999996185,-0.40000000596,12.6499996185
"2002-01-01 12:00:00",4.42999982834,0.151999995112,105.699996948,13.6899995804,7.32000017166,-0.40000000596,13.3999996185
"2002-01-01 13:00:00",4.86999988556,0.151999995112,105.900001526,13.5699996948,7.34000015259,-0.300000011921,13.2899999619
"2002-01-01 14:00:00",5.05000019073,0.151999995112,106.300003052,13.5600004196,7.36999988556,-0.40000000596,12.8000001907
"2002-01-01 15:00:00",4.98000001907,0.151999995112,105.400001526,13.4600000381,7.36999988556,-0.40000000596,12.6999998093
"2002-01-01 16:00:00",4.92000007629,0.151999995112,104.599998474,13.3900003433,7.36000013351,-0.300000011921,12.9300003052
"2002-01-01 17:00:00",4.88999986649,0.151999995112,103.400001526,13.2299995422,7.36000013351,-0.300000011921,12.6499996185
"2002-01-01 18:00:00",4.48999977112,0.152999997139,101.800003052,13.1700000763,7.36000013351,-0.40000000596,12.5900001526
"2002-01-01 19:00:00",4.36999988556,0.152999997139,100.699996948,13.0699996948,7.34000015259,-0.5,12.5500001907
"2002-01-01 20:00:00",3.8900001049,0.153999999166,99.6999969482,13.1000003815,7.30000019073,-0.20000000298,12.5100002289
"2002-01-01 21:00:00",3.72000002861,0.153999999166,99.5,13.1300001144,7.30000019073,0.0,12.470000267
"2002-01-01 22:00:00",3.54999995232,0.152999997139,99.5999984741,13.2100000381,7.28999996185,-0.40000000596,12.4499998093
"2002-01-01 23:00:00",3.33999991417,0.152999997139,99.8000030518,13.3000001907,7.28000020981,-0.5,12.4200000763
"2002-01-02 00:00:00",3.01999998093,0.151999995112,99.8000030518,13.4200000763,7.26999998093,-0.5,12.4099998474
"2002-01-02 01:00:00",2.78999996185,0.151999995112,99.3000030518,13.4300003052,7.26000022888,0.10000000149,12.3800001144
"2002-01-02 02:00:00",2.86999988556,0.150999993086,100.0,13.5,7.25,-0.10000000149,12.3500003815
"2002-01-02 03:00:00",2.90000009537,0.15000000596,100.5,13.5600004196,7.25,-0.20000000298,12.3100004196
"2002-01-02 04:00:00",2.78999996185,0.15000000596,100.599998474,13.6199998856,7.25,-0.20000000298,12.279999733
"2002-01-02 05:00:00",2.77999997139,0.15000000596,100.800003052,13.6499996185,7.25,-0.20000000298,12.2600002289
"2002-01-02 06:00:00",2.73000001907,0.15000000596,101.099998474,13.6999998093,7.25,-0.300000011921,12.2299995422
"2002-01-02 07:00:00",2.6099998951,0.15000000596,101.0,13.7299995422,7.25,-0.5,12.220000267
"2002-01-02 08:00:00",2.54999995232,0.15000000596,101.0,13.75,7.25,-0.40000000596,12.2100000381
"2002-01-02 09:00:00",2.58999991417,0.15000000596,101.599998474,13.8199996948,7.26000022888,-0.40000000596,12.3800001144
"2002-01-02 10:00:00",2.63000011444,0.15000000596,103.699996948,14.0900001526,7.26999998093,-0.5,12.9600000381
"2002-01-02 11:00:00",2.75,0.15000000596,106.199996948,14.3800001144,7.28999996185,-0.5,12.8900003433
"2002-01-02 12:00:00",3.34999990463,0.279000014067,107.5,14.3299999237,7.30999994278,-0.300000011921,12.8900003433
"2002-01-02 13:00:00",3.55999994278,0.246000006795,107.400001526,14.2399997711,7.32000017166,0.0,12.779999733
"2002-01-02 14:00:00",3.71000003815,0.17499999702,107.0,14.1300001144,7.34000015259,0.0,12.6700000763
"2002-01-02 15:00:00",3.71000003815,0.165999993682,106.5,14.0600004196,7.34000015259,0.10000000149,12.6099996567
"2002-01-02 16:00:00",3.86999988556,0.168999999762,105.5,13.8699998856,7.34000015259,0.600000023842,12.5799999237
"2002-01-02 17:00:00",3.93000006676,0.157000005245,104.0,13.6400003433,7.32000017166,1.20000004768,12.5399999619
"2002-01-02 18:00:00",3.81999993324,0.158999994397,101.400001526,13.3500003815,7.28999996185,2.0,12.5100002289
"2002-01-02 19:00:00",3.77999997139,0.152999997139,98.6999969482,13.0,7.26000022888,3.0,12.4799995422
"2002-01-02 20:00:00",3.46000003815,0.151999995112,96.3000030518,12.8000001907,7.21999979019,3.5,12.4399995804
"2002-01-02 21:00:00",2.83999991417,0.151999995112,94.0,12.6999998093,7.19000005722,3.20000004768,12.3999996185
"2002-01-02 22:00:00",2.46000003815,0.159999996424,93.1999969482,12.7299995422,7.17000007629,2.59999990463,12.3500003815
"2002-01-02 23:00:00",1.87999999523,0.172000005841,93.5,12.970000267,7.15999984741,2.0,12.2899999619
"2002-01-03 00:00:00",1.42999994755,0.229000002146,94.1999969482,13.220000267,7.15999984741,1.39999997616,12.25
"2002-01-03 01:00:00",0.860000014305,0.270999997854,94.4000015259,13.4600000381,7.15999984741,1.20000004768,12.2299995422
"2002-01-03 02:00:00",0.469999998808,0.279000014067,95.1999969482,13.720000267,7.15999984741,0.899999976158,12.220000267
"2002-01-03 03:00:00",0.330000013113,0.277000010014,96.8000030518,14.0200004578,7.17000007629,0.600000023842,12.2100000381
"2002-01-03 04:00:00",0.34999999404,0.275999993086,97.5,14.1000003815,7.17000007629,0.5,12.2100000381
"2002-01-03 05:00:00",0.40000000596,0.273999989033,97.8000030518,14.1300001144,7.17000007629,0.600000023842,12.2100000381
"2002-01-03 06:00:00",0.550000011921,0.272000014782,98.0999984741,14.1199998856,7.17000007629,1.0,12.1999998093
"2002-01-03 07:00:00",0.670000016689,0.268999993801,98.1999969482,14.0799999237,7.15999984741,1.29999995232,12.1899995804
"2002-01-03 08:00:00",0.899999976158,0.264999985695,98.3000030518,14.0,7.15000009537,1.79999995232,12.1899995804
"2002-01-03 09:00:00",1.01999998093,0.261999994516,98.5,13.9799995422,7.13999986649,2.0,12.1899995804
"2002-01-03 10:00:00",1.48000001907,0.261999994516,100.5,14.0900001526,7.13000011444,2.29999995232,12.7700004578
"2002-01-03 11:00:00",1.59000003338,0.261000007391,100.900001526,14.1000003815,7.11999988556,2.09999990463,12.9600000381
"2002-01-03 12:00:00",1.98000001907,0.268999993801,103.5,14.3100004196,7.13999986649,3.40000009537,12.9600000381
"2002-01-03 13:00:00",2.80999994278,0.851999998093,101.699996948,13.720000267,7.15000009537,22.2999992371,12.7899999619
"2002-01-03 14:00:00",3.45000004768,1.15499997139,99.3000030518,13.1599998474,7.13999986649,23.5,12.6300001144
"2002-01-03 15:00:00",3.86999988556,1.40999996662,96.5999984741,12.6400003433,7.05999994278,21.7999992371,12.5600004196
"2002-01-03 16:00:00",3.90000009537,1.65999996662,94.8000030518,12.3900003433,7.0,24.5,12.5100002289
"2002-01-03 17:00:00",3.77999997139,2.3710000515,93.6999969482,12.25,7.01000022888,23.7999992371,12.4899997711
"2002-01-03 18:00:00",3.59999990463,2.58999991417,93.0,12.2100000381,7.01000022888,22.5,12.4600000381
"2002-01-03 19:00:00",3.32999992371,2.52399992943,94.0,12.4300003052,7.03000020981,19.3999996185,12.4200000763
"2002-01-03 20:00:00",3.53999996185,2.70300006866,94.5999984741,12.4399995804,7.03000020981,16.6000003815,12.3999996185
"2002-01-03 21:00:00",3.84999990463,2.67700004578,95.0,12.3900003433,7.01999998093,11.6000003815,12.3599996567
"2002-01-03 22:00:00",4.07000017166,2.58200001717,95.1999969482,12.3400001526,7.01999998093,10.3000001907,12.3199996948
"2002-01-03 23:00:00",4.26000022888,2.48699998856,95.5999984741,12.3400001526,7.03999996185,9.69999980927,12.2700004578
"2002-01-04 00:00:00",4.36999988556,2.36100006104,95.4000015259,12.279999733,7.03000020981,9.19999980927,12.2299995422
"2002-01-04 01:00:00",4.53000020981,2.33599996567,95.5999984741,12.2600002289,7.01999998093,9.19999980927,12.2100000381
"2002-01-04 02:00:00",4.65999984741,2.77200007439,95.3000030518,12.1700000763,7.01999998093,8.69999980927,12.1899995804
"2002-01-04 03:00:00",4.61999988556,3.40700006485,94.5999984741,12.0600004196,7.03000020981,7.5,12.1800003052
"2002-01-04 04:00:00",4.55000019073,3.35299992561,94.8000030518,12.1000003815,7.01999998093,8.0,12.1499996185
"2002-01-04 05:00:00",4.44999980927,2.92000007629,94.8000030518,12.1599998474,7.0,8.19999980927,12.1300001144
"2002-01-04 06:00:00",4.23999977112,2.48000001907,95.0999984741,12.279999733,7.01999998093,7.69999980927,12.1199998856
"2002-01-04 07:00:00",4.11000013351,2.28399991989,95.4000015259,12.3800001144,7.0,6.80000019073,12.1000003815
"2002-01-04 08:00:00",3.8900001049,2.15000009537,95.5,12.4600000381,7.0,6.19999980927,12.0900001526
"2002-01-04 09:00:00",3.72000002861,1.92599999905,97.5,12.7899999619,7.01999998093,5.40000009537,12.0799999237
"2002-01-04 10:00:00",3.74000000954,1.85300004482,98.0999984741,12.8599996567,7.01000022888,4.90000009537,12.0900001526
"2002-01-04 11:00:00",3.82999992371,1.75100004673,99.8000030518,13.0600004196,7.01999998093,4.09999990463,12.1099996567
"2002-01-04 12:00:00",4.65000009537,1.84800004959,105.5,13.5100002289,7.01999998093,6.40000009537,12.4200000763
"2002-01-04 13:00:00",4.88000011444,3.39700007439,103.300003052,13.0799999237,7.07999992371,93.4000015259,13.6300001144
"2002-01-04 14:00:00",5.73999977112,3.41899991035,101.599998474,12.5799999237,7.0,71.8000030518,12.8100004196
"2002-01-04 15:00:00",6.09999990463,3.82800006866,99.5999984741,12.2100000381,6.94999980927,98.9000015259,12.6499996185
"2002-01-04 16:00:00",6.38999986649,4.05399990082,98.4000015259,11.9499998093,6.96999979019,113.5,12.7700004578
"2002-01-04 17:00:00",6.57999992371,4.33300018311,97.4000015259,11.7700004578,6.98000001907,108.199996948,12.6499996185
"2002-01-04 18:00:00",6.46999979019,4.30999994278,96.5,11.6899995804,6.96000003815,101.300003052,12.5600004196
"2002-01-04 19:00:00",6.23000001907,4.33099985123,95.5999984741,11.6499996185,6.94000005722,79.0,12.5
"2002-01-04 20:00:00",5.96000003815,4.32800006866,95.0999984741,11.6700000763,6.92999982834,67.0999984741,12.4499998093
"2002-01-04 21:00:00",5.63999986649,4.05800008774,95.0999984741,11.779999733,6.92000007629,62.5999984741,12.4099998474
"2002-01-04 22:00:00",5.26999998093,3.74399995804,94.8000030518,11.8699998856,6.90999984741,52.7999992371,12.3800001144
"2002-01-04 23:00:00",5.01000022888,3.50900006294,95.0,11.9799995422,6.90999984741,41.7000007629,12.3400001526
"2002-01-05 00:00:00",4.80999994278,3.29399991035,95.3000030518,12.0900001526,6.90999984741,36.5,12.3199996948
"2002-01-05 01:00:00",4.53000020981,2.98200011253,95.0,12.1499996185,6.92999982834,28.2000007629,12.279999733
"2002-01-05 02:00:00",4.13000011444,2.63000011444,95.0999984741,12.3199996948,6.94999980927,20.3999996185,12.2600002289
"2002-01-05 03:00:00",4.01999998093,2.28699994087,96.4000015259,12.529999733,6.96999979019,16.7999992371,12.2299995422
"2002-01-05 04:00:00",3.69000005722,2.11299991608,96.4000015259,12.6400003433,6.98000001907,13.5,12.1899995804
"2002-01-05 05:00:00",3.47000002861,1.9659999609,96.5,12.7399997711,6.98999977112,12.3999996185,12.1300001144
"2002-01-05 06:00:00",3.23000001907,1.83800005913,96.6999969482,12.8599996567,6.98999977112,13.8000001907,12.0900001526
"2002-01-05 07:00:00",2.98000001907,1.74399995804,96.6999969482,12.9499998093,6.98999977112,12.6999998093,12.0699996948
"2002-01-05 08:00:00",2.80999994278,1.64699995518,96.9000015259,13.0399999619,7.0,11.3000001907,12.0699996948
"2002-01-05 09:00:00",2.66000008583,1.57299995422,97.8000030518,13.220000267,7.01000022888,9.5,12.0900001526
"2002-01-05 10:00:00",2.78999996185,1.49699997902,100.0,13.470000267,7.01999998093,7.80000019073,12.5799999237
"2002-01-05 11:00:00",3.29999995232,1.45500004292,102.400001526,13.6000003815,7.03000020981,5.80000019073,12.779999733
"2002-01-05 12:00:00",4.11000013351,1.89600002766,104.599998474,13.5900001526,7.05000019073,12.0,13.5500001907
"2002-01-05 13:00:00",4.84999990463,1.82700002193,105.400001526,13.4200000763,7.07999992371,15.3000001907,13.7100000381
"2002-01-05 14:00:00",5.38000011444,1.57400000095,104.699996948,13.1700000763,7.07999992371,12.8000001907,12.8800001144
"2002-01-05 15:00:00",6.09000015259,2.38899993896,102.199996948,12.5900001526,7.05999994278,22.6000003815,12.779999733
"2002-01-05 16:00:00",6.90999984741,3.09299993515,99.4000015259,11.970000267,7.0,37.4000015259,12.9600000381
"2002-01-05 17:00:00",7.51000022888,2.47099995613,96.9000015259,11.5200004578,7.03000020981,38.4000015259,12.6800003052
"2002-01-05 18:00:00",7.59000015259,2.04500007629,95.0999984741,11.3100004196,7.03000020981,39.2000007629,12.6099996567
"2002-01-05 19:00:00",7.40999984741,1.84700000286,94.5999984741,11.3000001907,6.98999977112,33.9000015259,12.5699996948
"2002-01-05 20:00:00",7.07999992371,1.72300004959,94.0,11.3299999237,6.96000003815,28.0,12.529999733
"2002-01-05 21:00:00",6.73000001907,1.60800004005,93.8000030518,11.3999996185,6.92000007629,28.7999992371,12.5
"2002-01-05 22:00:00",6.19999980927,1.51600003242,93.4000015259,11.5100002289,6.90000009537,20.3999996185,12.470000267
"2002-01-05 23:00:00",6.0,1.49100005627,93.1999969482,11.5500001907,6.88000011444,18.7000007629,12.4499998093
"2002-01-06 00:00:00",5.69999980927,1.39499998093,93.9000015259,11.720000267,6.86999988556,15.0,12.4300003052
"2002-01-06 01:00:00",5.44000005722,1.33099997044,93.9000015259,11.8100004196,6.88000011444,11.8000001907,12.4099998474
"2002-01-06 02:00:00",5.13999986649,1.2840000391,93.9000015259,11.8999996185,6.88000011444,12.5,12.3900003433
"2002-01-06 03:00:00",4.90999984741,1.2460000515,93.6999969482,11.9499998093,6.86999988556,10.3999996185,12.3699998856
"2002-01-06 04:00:00",4.73000001907,1.18799996376,93.4000015259,11.970000267,6.88000011444,7.5,12.3599996567
"2002-01-06 05:00:00",4.63999986649,1.10899996758,93.4000015259,12.0,6.88999986649,5.40000009537,12.3599996567
"2002-01-06 06:00:00",4.63000011444,1.05999994278,93.1999969482,11.9799995422,6.90000009537,4.09999990463,12.3599996567
"2002-01-06 07:00:00",4.61999988556,1.01100003719,93.5999984741,12.029999733,6.90999984741,3.09999990463,12.3500003815
"2002-01-06 08:00:00",4.65999984741,0.98400002718,93.6999969482,12.029999733,6.90999984741,2.59999990463,12.3500003815
"2002-01-06 09:00:00",4.57000017166,2.14400005341,94.4000015259,12.1099996567,6.92999982834,158.300003052,12.3400001526
"2002-01-06 10:00:00",4.96999979019,1.36199998856,96.3000030518,12.25,6.94000005722,55.2000007629,12.3500003815
"2002-01-06 11:00:00",5.09999990463,1.74899995327,98.5999984741,12.4899997711,6.92000007629,347.899993896,12.3400001526
"2002-01-06 12:00:00",3.52999997139,0.550000011921,104.300003052,13.8299999237,6.96999979019,387.700012207,12.3299999237
"2002-01-06 13:00:00",3.52999997139,0.405000001192,103.800003052,13.7600002289,6.84999990463,128.300003052,12.3199996948
"2002-01-06 14:00:00",3.99000000954,0.402000010014,102.800003052,13.4600000381,6.78000020981,77.3000030518,12.2899999619
"2002-01-06 15:00:00",4.17000007629,0.632000029087,101.699996948,13.25,6.71000003815,46.7999992371,12.2899999619
"2002-01-06 16:00:00",4.88000011444,0.606000006199,100.699996948,12.8699998856,6.71000003815,37.2999992371,12.2899999619
"2002-01-06 17:00:00",5.23000001907,0.694999992847,100.199996948,12.6999998093,6.71999979019,28.7999992371,12.2399997711
"2002-01-06 18:00:00",5.88000011444,0.523000001907,99.0999984741,12.3500003815,6.73999977112,25.5,12.220000267
"2002-01-06 19:00:00",6.15999984741,0.523999989033,98.6999969482,12.2100000381,6.76999998093,24.8999996185,12.2100000381
"2002-01-06 20:00:00",6.38999986649,0.526000022888,98.1999969482,12.0900001526,6.78999996185,21.0,12.1999998093
"2002-01-06 21:00:00",6.59999990463,0.521000027657,97.9000015259,11.9799995422,6.80000019073,17.8999996185,12.1999998093
"2002-01-06 22:00:00",6.73999977112,0.537999987602,97.6999969482,11.9200000763,6.82000017166,18.2999992371,12.1899995804
"2002-01-06 23:00:00",6.84999990463,0.509999990463,97.4000015259,11.8500003815,6.82999992371,16.0,12.1800003052
"2002-01-07 00:00:00",6.86999988556,0.509999990463,97.3000030518,11.8299999237,6.84000015259,15.8999996185,12.1800003052
"2002-01-07 01:00:00",6.82999992371,0.501999974251,96.9000015259,11.8000001907,6.86000013351,12.6999998093,12.1700000763
"2002-01-07 02:00:00",6.73999977112,0.503000020981,96.8000030518,11.8100004196,6.84999990463,10.6999998093,12.1599998474
"2002-01-07 03:00:00",6.65000009537,0.508000016212,96.6999969482,11.8199996948,6.86999988556,10.1999998093,12.1400003433
"2002-01-07 04:00:00",6.57000017166,0.51700001955,96.3000030518,11.8000001907,6.88999986649,9.10000038147,12.1400003433
"2002-01-07 05:00:00",6.42999982834,0.51599997282,96.4000015259,11.8500003815,6.90000009537,8.10000038147,12.1300001144
"2002-01-07 06:00:00",6.28000020981,0.518999993801,96.4000015259,11.8999996185,6.90000009537,6.59999990463,12.1199998856
"2002-01-07 07:00:00",6.25,0.518000006676,96.5,11.9200000763,6.92000007629,6.59999990463,12.1099996567
"2002-01-07 08:00:00",6.23999977112,0.521000027657,96.4000015259,11.9099998474,6.92000007629,5.40000009537,12.1099996567
"2002-01-07 09:00:00",6.25,0.522000014782,96.8000030518,11.9600000381,6.92999982834,5.09999990463,12.1300001144
"2002-01-07 10:00:00",6.36999988556,0.532999992371,98.4000015259,12.1199998856,6.92999982834,4.80000019073,12.9600000381
"2002-01-07 11:00:00",6.88000011444,0.500999987125,100.400001526,12.2100000381,6.96000003815,4.80000019073,12.6000003815
"2002-01-07 12:00:00",7.55000019073,0.49200001359,101.099998474,12.0900001526,6.98999977112,6.90000009537,13.220000267
"2002-01-07 13:00:00",8.46000003815,1.02799999714,99.0999984741,11.5799999237,6.88000011444,82.0,12.9499998093
"2002-01-07 14:00:00",9.14999961853,1.08099997044,97.1999969482,11.1599998474,6.98000001907,88.8000030518,12.8800001144
"2002-01-07 15:00:00",9.14999961853,0.950999975204,97.3000030518,11.1800003052,7.01000022888,146.199996948,12.7899999619
"2002-01-07 16:00:00",8.75,0.861000001431,97.8000030518,11.3500003815,6.98000001907,126.599998474,12.75
"2002-01-07 17:00:00",8.35999965668,0.725000023842,97.9000015259,11.4600000381,6.96000003815,110.599998474,12.6199998856
"2002-01-07 18:00:00",7.98999977112,0.663999974728,97.0999984741,11.4799995422,6.92999982834,116.5,12.5699996948
"2002-01-07 19:00:00",7.69000005722,0.602999985218,97.0,11.5600004196,6.92000007629,86.1999969482,12.529999733
"2002-01-07 20:00:00",7.40999984741,0.556999981403,96.9000015259,11.6199998856,6.92000007629,68.9000015259,12.5100002289
"2002-01-07 21:00:00",7.15999984741,0.536000013351,96.9000015259,11.6999998093,6.92000007629,57.9000015259,12.470000267
"2002-01-07 22:00:00",6.94999980927,0.514999985695,97.0,11.7700004578,6.92000007629,48.5999984741,12.4499998093
"2002-01-07 23:00:00",6.75,0.495999991894,97.0999984741,11.8500003815,6.92999982834,46.9000015259,12.4300003052
"2002-01-08 00:00:00",6.57000017166,0.485000014305,97.1999969482,11.9099998474,6.94000005722,39.7000007629,12.4200000763
"2002-01-08 01:00:00",6.36000013351,0.483000010252,96.9000015259,11.9300003052,6.94999980927,37.5,12.3999996185
"2002-01-08 02:00:00",6.17999982834,0.456999987364,96.8000030518,11.9799995422,6.96000003815,36.2999992371,12.3800001144
"2002-01-08 03:00:00",5.98000001907,0.444999992847,96.8000030518,12.029999733,6.96999979019,32.9000015259,12.3599996567
"2002-01-08 04:00:00",5.82000017166,0.453999996185,96.6999969482,12.0699996948,6.96999979019,27.2000007629,12.3500003815
"2002-01-08 05:00:00",5.59000015259,0.45300000906,96.6999969482,12.1400003433,6.98000001907,23.3999996185,12.3400001526
"2002-01-08 06:00:00",5.42999982834,0.428999990225,97.1999969482,12.2600002289,7.0,20.8999996185,12.3199996948
"2002-01-08 07:00:00",5.21999979019,0.423999994993,97.0,12.3000001907,7.01000022888,20.5,12.3000001907
"2002-01-08 08:00:00",5.05999994278,0.41400000453,97.5,12.4099998474,7.01999998093,23.0,12.279999733
"2002-01-08 09:00:00",5.0,0.391999989748,99.0,12.6199998856,7.03999996185,29.0,12.279999733
"2002-01-08 10:00:00",4.98000001907,0.395000010729,100.0,12.7600002289,7.03999996185,25.7999992371,12.5600004196
"2002-01-08 11:00:00",5.03999996185,0.402999997139,101.0,12.8599996567,7.05000019073,19.3999996185,12.5500001907
"2002-01-08 12:00:00",5.78999996185,0.430000007153,103.099998474,12.8800001144,7.05000019073,16.1000003815,13.7100000381
"2002-01-08 13:00:00",6.23999977112,0.432000011206,103.400001526,12.779999733,7.07999992371,13.6999998093,13.6700000763
"2002-01-08 14:00:00",6.46999979019,0.441000014544,102.900001526,12.6400003433,7.07999992371,11.6999998093,12.8199996948
"2002-01-08 15:00:00",6.59999990463,0.460000008345,102.0,12.4899997711,7.09000015259,10.3000001907,12.6800003052
"2002-01-08 16:00:00",6.69000005722,0.501999974251,100.900001526,12.3199996948,7.07000017166,9.19999980927,13.0699996948
"2002-01-08 17:00:00",6.59999990463,0.805000007153,96.9000015259,11.8599996567,6.98000001907,4.90000009537,12.6700000763
"2002-01-08 18:00:00",6.48999977112,1.02900004387,93.3000030518,11.4300003052,6.98000001907,3.40000009537,12.5799999237
"2002-01-08 19:00:00",6.32999992371,1.06700003147,90.8000030518,11.1700000763,6.98000001907,2.70000004768,12.5399999619
"2002-01-08 20:00:00",6.07999992371,1.02600002289,90.8000030518,11.2399997711,6.98999977112,3.29999995232,12.5
"2002-01-08 21:00:00",5.84000015259,0.985000014305,89.8000030518,11.1899995804,6.98000001907,3.0,12.470000267
"2002-01-08 22:00:00",5.51999998093,0.941999971867,89.0999984741,11.1999998093,6.96999979019,3.09999990463,12.4499998093
"2002-01-08 23:00:00",5.28999996185,0.894999980927,89.0,11.25,6.96999979019,4.59999990463,12.4200000763
"2002-01-09 00:00:00",5.01999998093,0.851000010967,89.6999969482,11.4200000763,6.96000003815,4.5,12.3999996185
"2002-01-09 01:00:00",4.82999992371,0.834999978542,90.6999969482,11.6000003815,6.94999980927,4.90000009537,12.3800001144
"2002-01-09 02:00:00",4.46999979019,0.825999975204,90.3000030518,11.6599998474,6.94000005722,4.30000019073,12.3699998856
"2002-01-09 03:00:00",4.30000019073,0.820999979973,91.4000015259,11.8599996567,6.94000005722,3.29999995232,12.3500003815
"2002-01-09 04:00:00",4.23000001907,0.783999979496,92.4000015259,12.0200004578,6.94999980927,3.0,12.3400001526
"2002-01-09 05:00:00",3.97000002861,0.746999979019,92.5,12.1099996567,6.94999980927,2.40000009537,12.3299999237
"2002-01-09 06:00:00",3.90000009537,0.709999978542,92.5,12.1400003433,6.96000003815,2.40000009537,12.3199996948
"2002-01-09 07:00:00",3.74000000954,0.676999986172,92.9000015259,12.2299995422,6.96000003815,2.0,12.3000001907
"2002-01-09 08:00:00",3.56999993324,0.648000001907,93.4000015259,12.3500003815,6.96999979019,2.0,12.2899999619
"2002-01-09 09:00:00",3.76999998093,0.628000020981,95.4000015259,12.5600004196,6.98999977112,1.79999995232,12.5799999237
"2002-01-09 10:00:00",3.98000001907,0.60799998045,97.5,12.7700004578,7.0,1.79999995232,12.779999733
"2002-01-09 11:00:00",4.55000019073,0.580999970436,100.0,12.8999996185,7.01000022888,1.60000002384,12.6999998093
"2002-01-09 12:00:00",5.30999994278,0.57800000906,101.699996948,12.8599996567,7.03000020981,1.60000002384,13.6899995804